User: anonymous   Login
Location: Caltech
(34.1382°N, 118.1253°W)
Time: 07:54:31
(UTC-07:00)
Language:

Cosmos 1758 Rocket - Orbit

View from above orbital plane
View from above orbital plane
View from above satellite
View from above satellite

Ground track
Ground track

The orbit data is extracted from the following two-line orbital elements,

1 16792U 86046B   17147.89077507 +.00000096 +00000-0 +87876-5 0  9998
2 16792 082.4843 221.5017 0024253 003.7605 115.8908 14.83132076650784
Epoch (UTC): 27 May 2017 21:22:42
Eccentricity: 0.0024253
inclination: 82.4843°
perigee height: 602 km
apogee height: 636 km
right ascension of ascending node: 221.5017°
argument of perigee: 3.7605°
revolutions per day: 14.83132076
mean anomaly at epoch: 115.8908°
orbit number at epoch: 65078

The dashed part of the orbit path shows where the satellite is in the earth's shadow,  

DLR